Location: �terpigny
(49.8910°N, 2.9249°E)
Time: 15:13:58
(UTC+00:00)

Cosmos 1300 - Pass Details

Date: 24 October 2021
Orbit: 509 x 512 km, 82.5° (Epoch: 27 November)

Event Time Altitude Azimuth Distance (km) Brightness Sun altitude
Rises 17:53:31 0° 184° (S) 2,614 6.4 -12.5°
Reaches altitude 10° 17:55:38 10° 183° (S) 1,732 5.4 -12.9°
Maximum altitude 17:59:25 75° 98° (E) 536 2.6 -13.5°
Drops below altitude 10° 18:03:14 10° 13° (NNE) 1,746 5.2 -14.1°
Sets 18:05:23 0° 12° (NNE) 2,637 6.2 -14.4°
